COSMOS 2251 DEB, 40230

Orbit data source: Space-Track

COSMOS 2251 DEB, 40230 is space debris in LEO originally from a launch on Wed, 16 Jun 1993 UTC launched from the Plesetsk Missile And Space Complex (PKMTR). The debris from Iridium 33, an American commercial communications satellite, has been tracked extensively since its accidental collision with the defunct Russian satellite Cosmos 2251 in 2009. This event, occurring at high speed in low Earth orbit (LEO), generated thousands of pieces of space debris, significantly increasing the risk of further collisions. The Iridium 33 debris cloud has impacted space traffic management and orbital debris mitigation strategies, making it a subject of ongoing study in space situational awareness.

Loading next visibility...
Identifier
40230, 1993-036BVK
Orbit
LEO
Country
Flag of CISCIS
Related business
Manufacturer
Unknown
Mission
Spacecraft
Bus & Motor
Unknown
Mass
Unknown
Launch date (UTC)
1993-06-16 (33 years ago)
Launch vehicle
Unknown
Launch site
Plesetsk Missile And Space Complex (PKMTR)
Object type
Payload
Rocket body
Debris
Shape & HBR
Unknown shape, 0.1 m
Radar Cross Section
Small (<0.1 m²)

Expand to show TLE details & history
Last TLE update: 4 days ago

TLE from 4 days ago
0 COSMOS 2251 DEB
1 40230U 93036BVK 26169.45306130  .00001312  00000-0  34287-3 0  9990
2 40230  74.0433 234.6315 0017996 250.8410 125.7375 14.50337077616929
Epoch: 2026-06-18T10:52Z
TLE epoch observation values (Epoch: 2026-06-18T10:52:24.496Z)
Latitude
16.06985°
Longitude
169.53248°
Altitude
733.992 km
Speed
7.486 km/s
True Right ascension
15h 57m 19s
True Declination
15° 58' 42"
Sunlit
Object was in full shadow at epoch
Visualization orbit readout
Latitude
Unknown
Longitude
Unknown
Altitude
Unknown
Speed
Unknown
Apparent Right ascension
Unknown
Apparent Declination
Unknown
Sunlit
N/A
Visualization observer readout
Local Sidereal Time
21:40:32
Azimuth
Unknown
Elevation
Unknown
Doppler factor
Unknown
Orbital elements
Apogee altitude
734.933 km
Perigee altitude
709.378 km
Semi-major axis
7,100.292 km
Eccentricity
0.0018
Inclination
74.0433°
RAAN
234.6315°
Arg. of periapsis
250.841°
True anomaly
125.90467°
Mean anomaly
125.7375°
Eccentric anomaly
125.82111°
Mean motion
3.62768 °/min
Orbital period
99.24 mins
BSTAR
0.00034287
Loading maneuver chart data...
Computing Atmospheric mass density...

Documentation

Showing up to 5 results
|